TimeMDT,TemperatureF,Dew PointF,Humidity,Sea Level PressureIn,VisibilityMPH,Wind Direction,Wind SpeedMPH,Gust SpeedMPH,PrecipitationIn,Events,Conditions,WindDirDegrees,DateUTC
1:15 AM,59.0,57.2,94,30.08,10.0,Calm,Calm,-,N/A,,Overcast,0,2013-08-12 07:15:00
1:35 AM,59.0,57.2,94,30.08,10.0,Calm,Calm,-,N/A,,Overcast,0,2013-08-12 07:35:00
1:55 AM,59.0,57.2,94,30.08,10.0,Calm,Calm,-,N/A,,Overcast,0,2013-08-12 07:55:00
2:15 AM,59.0,55.4,88,30.08,10.0,Calm,Calm,-,N/A,,Overcast,0,2013-08-12 08:15:00
2:35 AM,59.0,55.4,88,30.07,10.0,Calm,Calm,-,N/A,,Overcast,0,2013-08-12 08:35:00
2:55 AM,59.0,55.4,88,30.07,10.0,Calm,Calm,-,N/A,,Overcast,0,2013-08-12 08:55:00
3:15 AM,59.0,55.4,88,30.07,10.0,Calm,Calm,-,N/A,,Overcast,0,2013-08-12 09:15:00
3:35 AM,59.0,55.4,88,30.07,10.0,Calm,Calm,-,N/A,,Overcast,0,2013-08-12 09:35:00
3:55 AM,59.0,55.4,88,30.07,10.0,Calm,Calm,-,N/A,,Overcast,0,2013-08-12 09:55:00
4:15 AM,59.0,55.4,88,30.07,10.0,Calm,Calm,-,N/A,,Overcast,0,2013-08-12 10:15:00
4:35 AM,59.0,55.4,88,30.07,10.0,Calm,Calm,-,N/A,,Overcast,0,2013-08-12 10:35:00
4:55 AM,59.0,55.4,88,30.07,10.0,Calm,Calm,-,N/A,,Overcast,0,2013-08-12 10:55:00
5:15 AM,59.0,55.4,88,30.07,7.0,Calm,Calm,-,N/A,,Overcast,0,2013-08-12 11:15:00
5:35 AM,59.0,55.4,88,30.07,7.0,Calm,Calm,-,N/A,,Overcast,0,2013-08-12 11:35:00
5:55 AM,59.0,55.4,88,30.07,7.0,Calm,Calm,-,N/A,,Overcast,0,2013-08-12 11:55:00
6:15 AM,59.0,55.4,88,30.07,10.0,Calm,Calm,-,N/A,,Overcast,0,2013-08-12 12:15:00
6:35 AM,59.0,55.4,88,30.07,10.0,Calm,Calm,-,N/A,,Overcast,0,2013-08-12 12:35:00
6:55 AM,59.0,55.4,88,30.07,7.0,Calm,Calm,-,N/A,,Overcast,0,2013-08-12 12:55:00
7:15 AM,59.0,55.4,88,30.07,7.0,Calm,Calm,-,N/A,,Overcast,0,2013-08-12 13:15:00
7:35 AM,59.0,55.4,88,30.08,7.0,Calm,Calm,-,N/A,,Overcast,0,2013-08-12 13:35:00
7:55 AM,59.0,55.4,88,30.08,7.0,Calm,Calm,-,N/A,,Overcast,0,2013-08-12 13:55:00
8:15 AM,59.0,55.4,88,30.08,7.0,Calm,Calm,-,N/A,,Overcast,0,2013-08-12 14:15:00
8:35 AM,59.0,55.4,88,30.09,7.0,Calm,Calm,-,N/A,,Overcast,0,2013-08-12 14:35:00
8:55 AM,59.0,55.4,88,30.09,7.0,Calm,Calm,-,N/A,,Overcast,0,2013-08-12 14:55:00
9:15 AM,60.8,55.4,82,30.09,10.0,Calm,Calm,-,N/A,,Overcast,0,2013-08-12 15:15:00
9:35 AM,60.8,55.4,82,30.09,10.0,Calm,Calm,-,N/A,,Overcast,0,2013-08-12 15:35:00
9:55 AM,60.8,55.4,82,30.09,10.0,Calm,Calm,-,N/A,,Overcast,0,2013-08-12 15:55:00
10:15 AM,62.6,55.4,77,30.09,10.0,Calm,Calm,-,N/A,,Overcast,0,2013-08-12 16:15:00
10:35 AM,62.6,55.4,77,30.09,10.0,Calm,Calm,-,N/A,,Overcast,0,2013-08-12 16:35:00
10:55 AM,62.6,55.4,77,30.09,10.0,Calm,Calm,-,N/A,,Overcast,0,2013-08-12 16:55:00
11:15 AM,64.4,55.4,73,30.09,10.0,Calm,Calm,-,N/A,,Overcast,0,2013-08-12 17:15:00
11:35 AM,64.4,55.4,73,30.09,10.0,Calm,Calm,-,N/A,,Overcast,0,2013-08-12 17:35:00
11:55 AM,64.4,55.4,73,30.10,10.0,Calm,Calm,-,N/A,,Overcast,0,2013-08-12 17:55:00
12:15 PM,64.4,55.4,73,30.10,10.0,Calm,Calm,-,N/A,,Overcast,0,2013-08-12 18:15:00
12:35 PM,66.2,55.4,68,30.10,10.0,Calm,Calm,-,N/A,,Overcast,0,2013-08-12 18:35:00
12:55 PM,68.0,53.6,60,30.09,10.0,Calm,Calm,-,N/A,,Overcast,0,2013-08-12 18:55:00
1:15 PM,68.0,53.6,60,30.10,10.0,NW,4.6,-,N/A,,Overcast,310,2013-08-12 19:15:00
1:35 PM,68.0,51.8,56,30.10,10.0,Calm,Calm,-,N/A,,Overcast,0,2013-08-12 19:35:00
1:55 PM,68.0,51.8,56,30.10,10.0,Calm,Calm,-,N/A,,Overcast,0,2013-08-12 19:55:00
2:15 PM,68.0,53.6,60,30.10,10.0,Calm,Calm,-,N/A,,Overcast,0,2013-08-12 20:15:00
2:35 PM,68.0,53.6,60,30.10,10.0,Calm,Calm,-,N/A,,Overcast,0,2013-08-12 20:35:00
2:55 PM,69.8,53.6,56,30.10,10.0,Calm,Calm,-,N/A,,Overcast,0,2013-08-12 20:55:00
3:15 PM,69.8,51.8,53,30.10,10.0,Calm,Calm,-,N/A,,Mostly Cloudy,0,2013-08-12 21:15:00
3:35 PM,69.8,50.0,49,30.10,10.0,Calm,Calm,-,N/A,,Mostly Cloudy,0,2013-08-12 21:35:00
3:55 PM,71.6,51.8,50,30.10,10.0,Calm,Calm,-,N/A,,Scattered Clouds,0,2013-08-12 21:55:00
4:15 PM,69.8,51.8,53,30.10,10.0,WNW,4.6,-,N/A,,Scattered Clouds,300,2013-08-12 22:15:00
4:35 PM,71.6,51.8,50,30.10,10.0,West,6.9,-,N/A,,Scattered Clouds,280,2013-08-12 22:35:00
4:55 PM,69.8,51.8,53,30.10,10.0,WNW,11.5,-,N/A,,Scattered Clouds,300,2013-08-12 22:55:00
5:15 PM,69.8,51.8,53,30.09,10.0,NW,11.5,-,N/A,,Scattered Clouds,320,2013-08-12 23:15:00
5:35 PM,69.8,51.8,53,30.09,10.0,NW,11.5,-,N/A,,Clear,310,2013-08-12 23:35:00
5:55 PM,69.8,51.8,53,30.09,10.0,NW,8.1,-,N/A,,Clear,310,2013-08-12 23:55:00
6:15 PM,69.8,51.8,53,30.09,10.0,NW,8.1,-,N/A,,Clear,310,2013-08-13 00:15:00
6:35 PM,69.8,50.0,49,30.09,10.0,WNW,10.4,-,N/A,,Clear,300,2013-08-13 00:35:00
6:55 PM,68.0,51.8,56,30.09,10.0,WNW,10.4,-,N/A,,Clear,300,2013-08-13 00:55:00
7:15 PM,68.0,51.8,56,30.09,10.0,WNW,10.4,-,N/A,,Clear,300,2013-08-13 01:15:00
7:35 PM,68.0,53.6,60,30.09,10.0,WNW,10.4,-,N/A,,Clear,300,2013-08-13 01:35:00
7:55 PM,66.2,53.6,64,30.09,10.0,WNW,9.2,-,N/A,,Clear,300,2013-08-13 01:55:00
8:15 PM,64.4,51.8,64,30.10,10.0,WNW,6.9,-,N/A,,Clear,300,2013-08-13 02:15:00
8:35 PM,64.4,51.8,64,30.10,10.0,WNW,8.1,-,N/A,,Clear,290,2013-08-13 02:35:00
8:55 PM,62.6,53.6,72,30.10,10.0,West,4.6,-,N/A,,Clear,280,2013-08-13 02:55:00
9:15 PM,62.6,51.8,68,30.10,10.0,West,3.5,-,N/A,,Clear,270,2013-08-13 03:15:00
9:35 PM,60.8,53.6,77,30.11,10.0,West,3.5,-,N/A,,Clear,260,2013-08-13 03:35:00
9:55 PM,60.8,51.8,72,30.11,10.0,Calm,Calm,-,N/A,,Clear,0,2013-08-13 03:55:00
10:15 PM,59.0,51.8,77,30.11,10.0,Calm,Calm,-,N/A,,Clear,0,2013-08-13 04:15:00
10:35 PM,57.2,51.8,82,30.12,10.0,Calm,Calm,-,N/A,,Clear,0,2013-08-13 04:35:00
10:55 PM,55.4,51.8,88,30.12,10.0,Calm,Calm,-,N/A,,Clear,0,2013-08-13 04:55:00
11:15 PM,55.4,51.8,88,30.12,10.0,Calm,Calm,-,N/A,,Clear,0,2013-08-13 05:15:00
11:35 PM,55.4,51.8,88,30.12,10.0,Calm,Calm,-,N/A,,Clear,0,2013-08-13 05:35:00
11:55 PM,55.4,51.8,88,30.12,10.0,Calm,Calm,-,N/A,,Clear,0,2013-08-13 05:55:00